DELTA 1 R/B

Satellite information

Favourite Embed

Satellite Type and Status

ROCKET BODYIN ORBIT

Key statistics

Satellite DELTA 1 R/B at a glance.

Uptime

21225

Days in orbit

Revolutions

≈ 12.5

Per day

Orbit

SSO

Sun Synchronous Orbit

Inclination

102.0

Latest

Satellite identification and parameters

Extended collection of information and parameters for DELTA 1 R/B.

Object identification

Identified? True

Debris? False

Object name: DELTA 1 R/B

International designator: 1967-114B

Object number (NORAD): 3036

Object ID (CCSDS): 3036

Country: UNITED STATES OF AMERICA (US)

Current information (Y/N): Y

RCS size: MEDIUM

Orbital parameters

Period: 114.82 minutes

Inclination: 102.0126 deg

SMA: 7825.38 km

Apoapsis: 1485.032 km

Periapsis: 1409.459 km

RAAN: 87.7689 deg

Eccentricy: 0.00482874

Argument of periapsis: 121.027 deg

Mean anomaly: 353.5081 deg

Mean motion: 12.54135839 rev/day

Mean motion (dot): -0.00000043 rev/day2

B* drag term: 0.000018523549 1/REarth

Two-line elements (TLE)

Creation date: Dec. 20, 2025, 3:40 a.m.

Reference frame: TEME

Reference center: EARTH

Epoch: Dec. 19, 2025, 9:50 p.m. UTC

TLE line 0: 0 DELTA 1 R/B

TLE line 1: 1 03036U 67114B 25353.90995716 -.00000043 00000-0 18524-4 0 9997

TLE line 2: 2 03036 102.0126 87.7689 0048287 121.0270 353.5081 12.54135839659874

Live tracking on map

Real-time ground track for satellite DELTA 1 R/B.

In-orbit conjunctions

A list of the most updated potential collisions computed for object DELTA 1 R/B.

Target Orbit TCA Probability of collision Miss distance Type
COSMOS 1823 DEB LEO 2025-01-13 02:55:23 0.000149157 183.0 (m) DEBRIS
DELTA 1 DEB SSO 2024-10-20 20:13:33 0.0001202805 653.0 (m) DEBRIS

Associated space launch

The ESSA series was the second generation of US meterological satellites after the TIROS (Television & Infra-Red Observation Satellite) series. They were also called OT (Operational TIROS), TOS (TIROS Operational Satellite).

DELTA 1 R/B was lifted into orbit during the mission ‘Thor Delta E1 | ESSA 6’, on board a Thor Delta E1 space rocket.

The launch took place on Nov. 10, 1967, 5:53 p.m. from Space Launch Complex 2E.

For more information about the launch, click the button.

Launch to space Thor Delta E1 | ESSA 6
Thor Delta E1 | ESSA 6

Agency: N/A

Status: Launch Successful

Launch date: Nov. 10, 1967, 5:53 p.m. UTC

Rocket: Thor Delta E1

Launch pad: Space Launch Complex 2E

Location: Vandenberg SFB, CA, USA

...

Latest news about this satellite

There are no fresh news available about this satellite. Check back as we update our databases every day.


Newsletter sign-up

Weekly statistics, charts and insights to help you stay on top of the space industry.